Weather in Krym-Saray

Russia / Republic of Tatarstan     54°31′52″N   53°06′59″E
temp.,
°C
wind,
m/s
gust,
m/s
humid.,
%
clouds,
%
prec.,
mm/h
press.,
hPa
HPBL,
m
9 may, sun
sun900:00+11se227495 0.0 101613
03:00+10sse227922 0.0 101612
06:00+13sse23690 0.0 1016132
09:00+19sse45450 0.0 1016880
12:00+21sse33350 0.0 10152397
15:00+22sse333313 0.0 10152443
18:00+19se334916 0.0 101551
21:00+15ese225096 0.0 101615
10 may, mon
mon1000:00+13ese22605 0.0 101713
03:00+12se226290 0.0 101815
06:00+15se245672 0.0 1019137
09:00+20ese3444100 0.0 1020781
12:00+22ese333395 0.0 10202241
15:00+23e4434100 0.0 10202407
18:00+19ene3856100 0.0 1021196
21:00+16e2259100 0.0 102212
11 may, tue
tue1100:00+14e116359 0.0 102311
03:00+13ene2267100 0.0 102410
06:00+15ese1262100 0.0 102598
09:00+20se2345100 0.0 1026611
12:00+22ese233699 0.0 10271918
15:00+23ene3334100 0.0 10272448
18:00+19ene375296 0.0 1027156
21:00+16e335926 0.0 102846
12 may, wed
wed1200:00+14ese11665 0.0 102911
03:00+13e116791 0.0 102911
06:00+16ene2360100 0.0 1030117
09:00+20e454571 0.0 1030695
12:00+23e453921 0.0 10292182
15:00+24e443814 0.0 10282197
18:00+20ne475950 0.0 1028214
21:00+17ene496771 0.0 1029254
13 may, thu
thu1300:00+14ene23720 0.0 102948
03:00+13ene22640 0.0 102910
06:00+16ene23560 0.0 1028144
09:00+20e33455 0.0 1028596
12:00+23ese22400 0.0 10271630
15:00+24e22360 0.0 10261960
18:00+21ene34527 0.0 102674
21:00+18e224993 0.0 102611